Location: *
(50.6089°N, 2.2719°E)
Time: 16:08:36
(UTC+00:00)

STARLINK-54 - Pass Details

Date: 18 October 2019
Orbit: 548 x 551 km, 53.0° (Epoch: 21 November)

Event Time Altitude Azimuth Distance (km) Brightness Sun altitude
Rises 19:27:25 0° 278° (W) 2,718 8.5 -25.0°
Reaches altitude 10° 19:29:40 10° 282° (WNW) 1,825 7.3 -25.3°
Enters shadow 19:33:04 52° 317° (NW) 692 4.3 -25.9°
